Theta_e
292 291 291 291 291 290 290 290 291 292 291 293 296 297 296 293 291 290 292 289 288 282 288 289 290 285 283 279 279 280 282 281 281 282 283 284 287 287 288 281 285 287 291 295 290 300 301 287 286 294 287 282 281 280
292 291 291 291 291 290 290 290 291 291 291 292 295 296 297 296 293 290 291 289 287 289 287 290 290 290 290 287 280 276 278 274 287 285 282 284 289 281 282 288 281 285 285 288 292 294 287 282 283 281 281 280 279 279
293 292 291 291 291 290 290 290 290 292 291 293 294 296 296 296 295 292 289 288 288 284 285 287 286 288 287 286 284 278 279 277 281 280 287 287 284 283 284 285 283 279 272 278 281 280 282 283 281 281 279 278 278 278
293 292 291 291 291 290 290 290 290 293 291 293 293 295 296 296 295 292 290 288 287 286 282 285 288 286 285 285 284 282 283 284 284 287 288 289 283 281 281 282 281 281 278 278 278 275 279 278 279 278 277 277 277 276
294 293 291 291 291 290 290 290 290 292 292 292 292 293 295 295 294 292 289 287 285 286 284 284 287 284 284 284 281 282 283 281 287 287 288 284 283 280 273 275 275 277 281 284 286 282 279 278 276 275 275 275 274 274
295 293 292 291 291 290 290 290 291 292 292 293 294 294 295 294 292 290 289 288 288 286 281 283 283 281 281 280 282 284 284 281 287 283 283 284 278 277 281 278 280 275 271 274 279 274 272 274 273 273 272 273 272 272
298 294 292 291 291 291 291 291 291 292 292 293 294 295 294 293 292 290 288 289 286 285 280 282 282 280 279 280 280 281 283 282 287 284 282 283 277 276 271 280 281 275 271 269 268 272 272 268 272 269 272 272 272 272
299 297 292 291 291 293 294 292 293 292 292 294 295 294 293 291 290 288 287 286 285 285 281 275 280 280 279 279 279 280 280 284 285 283 283 282 277 272 277 279 273 268 270 269 270 266 268 267 265 267 271 270 265 264
299 298 294 292 291 296 296 294 295 293 294 294 294 294 292 290 288 286 284 284 283 283 279 276 280 283 278 278 279 279 279 279 283 280 284 283 279 279 282 278 274 273 276 276 267 265 263 267 267 264 264 263 265 263
299 298 296 293 293 296 296 295 294 293 294 294 294 288 285 287 284 283 282 277 277 277 275 281 279 280 278 278 278 280 279 281 280 284 280 279 281 282 279 276 274 275 271 271 270 269 266 266 268 264 266 266 268 267
299 298 296 295 294 295 295 295 294 293 293 294 291 291 286 284 284 284 284 276 274 277 281 279 279 280 277 281 282 281 277 278 278 282 281 280 283 280 272 274 272 273 271 266 267 265 267 268 266 265 263 267 269 269
299 298 296 295 294 295 295 294 294 293 293 293 292 291 284 284 285 283 283 279 279 282 281 279 279 279 277 278 281 279 278 275 280 277 275 279 280 276 269 268 266 268 269 265 270 267 268 269 270 269 268 269 270 270
299 298 296 295 294 295 295 294 293 293 293 293 293 290 287 285 284 283 285 281 281 282 277 275 277 276 275 279 281 280 278 279 278 275 279 279 276 272 267 263 265 266 269 267 266 268 269 269 269 269 269 270 270 270
299 297 296 295 294 295 295 294 293 293 294 293 292 292 288 286 285 287 286 288 283 281 280 279 277 278 277 280 281 282 280 277 275 274 279 276 275 273 266 263 266 266 266 267 268 268 268 268 268 269 269 270 270 270
298 297 295 294 295 294 294 293 293 293 292 294 292 293 289 289 287 286 282 281 281 280 280 280 280 281 279 281 279 280 277 276 276 280 279 276 273 267 266 267 267 267 266 266 268 268 269 268 268 269 270 270 271 271
297 296 295 295 294 294 294 293 293 292 291 293 293 290 289 289 287 283 283 284 280 281 282 284 281 282 280 280 278 278 277 278 282 281 279 275 274 271 270 270 269 269 268 268 269 269 269 268 268 269 270 270 271 271
296 294 294 294 294 295 292 292 292 291 293 292 291 289 289 289 292 288 286 284 281 284 286 284 285 286 281 281 279 278 278 281 282 280 280 276 274 275 271 272 271 271 270 270 269 269 269 270 269 269 268 271 271 271
293 293 294 294 295 292 292 292 291 292 292 289 290 289 287 285 287 283 280 281 282 285 285 285 281 283 284 283 283 284 283 282 281 280 278 276 275 274 274 274 273 272 271 270 269 269 269 268 268 268 270 271 271 271
293 294 295 294 291 292 292 290 291 294 291 288 284 282 282 281 279 280 280 281 281 283 281 282 283 283 282 280 281 281 280 279 278 277 275 275 275 274 274 273 272 271 271 270 269 268 269 269 270 270 271 271 271 271
293 293 293 292 292 292 292 289 288 290 290 284 282 281 279 278 278 279 279 279 281 282 281 281 280 278 277 276 275 275 276 275 275 275 274 273 273 273 273 272 272 271 271 270 269 270 269 269 270 270 270 270 270 271
292 292 292 290 290 287 284 284 284 282 281 280 278 279 276 277 277 277 277 278 280 280 278 275 273 272 270 271 271 270 269 270 270 271 272 273 274 273 272 272 272 271 270 270 270 269 272 269 270 270 270 271 271 270
292 291 290 290 284 281 278 276 281 279 280 277 278 279 277 277 275 273 274 275 274 272 271 270 269 268 268 268 268 268 268 268 269 269 272 273 271 270 271 271 271 271 271 270 270 270 270 271 271 271 270 270 270 270
292 291 287 287 284 282 277 277 280 278 282 277 277 278 276 273 270 269 271 270 270 269 269 268 267 267 267 269 269 270 269 268 268 270 270 271 271 271 271 270 270 270 270 270 270 270 270 271 271 270 270 270 270 269
288 281 280 280 281 278 277 277 278 278 278 279 279 276 272 270 268 269 271 271 271 270 268 266 266 266 267 268 267 267 266 266 267 269 269 269 269 268 269 269 269 270 270 270 269 269 270 270 271 271 269 269 269 269
283 278 280 279 278 280 279 278 277 278 277 274 274 271 268 267 268 269 271 269 269 268 266 266 265 264 263 266 266 266 266 265 265 266 267 267 267 267 267 267 267 268 268 268 268 268 268 268 269 269 269 268 268 268
277 275 277 277 277 278 277 276 274 274 271 269 268 267 265 267 269 268 268 266 266 266 265 265 264 264 264 265 264 265 264 264 265 267 266 266 266 267 267 267 266 267 267 267 267 267 267 267 267 267 267 268 269 268
274 273 275 275 276 276 275 275 273 271 268 269 269 269 268 270 267 268 267 265 265 265 265 265 265 264 263 263 264 264 264 264 264 265 265 265 265 265 265 265 266 266 266 266 266 267 267 267 266 266 266 266 267 267
271 271 273 271 270 269 270 268 266 267 268 268 270 269 268 267 268 266 265 265 264 264 264 265 265 264 264 265 265 264 265 265 266 266 266 265 265 265 264 265 265 265 266 266 266 266 266 266 266 266 266 266 266 266
269 269 270 267 264 264 265 266 266 267 267 265 267 268 266 265 263 263 264 262 263 263 263 262 263 264 264 264 264 264 263 263 263 263 263 263 263 264 264 264 264 264 265 265 265 267 267 266 266 266 266 266 266 265
265 263 263 259 261 263 262 261 260 259 261 263 264 266 262 263 263 262 262 262 262 262 262 261 262 262 261 261 261 263 263 262 262 261 257 256 261 263 264 264 264 264 264 264 265 266 267 268 269 267 266 265 265 265
260 260 260 259 260 260 259 259 262 264 258 257 255 260 261 258 263 263 263 263 263 263 263 262 263 262 261 260 258 258 258 262 262 261 261 261 263 264 265 265 264 264 264 264 264 265 266 266 267 267 266 265 265 265
258 255 258 260 259 256 254 254 253 255 254 256 256 253 258 260 260 260 262 263 263 263 263 261 260 261 261 262 262 261 260 260 261 262 263 264 264 265 266 266 266 265 264 264 264 264 264 265 265 265 265 265 265 265
253 253 252 254 257 257 255 255 255 256 255 255 256 254 254 258 260 261 263 262 262 261 261 261 261 261 261 261 261 261 260 261 261 261 262 263 265 266 268 267 267 267 265 265 264 264 264 264 264 264 265 265 265 264
Wind_Speed
23 20 17 14 12 10 8 7 8 11 11 12 12 14 16 20 17 13 4 11 4 2 3 2 2 2 2 2 3 4 3 4 4 4 3 2 1 3 2 3 2 3 2 2 1 1 5 4 3 4 2 3 3 3
28 24 21 18 15 13 11 9 7 9 10 11 10 12 13 16 17 10 3 7 3 3 3 2 3 4 3 5 4 3 5 3 2 1 2 2 2 2 3 2 3 3 4 3 5 2 1 2 3 2 4 3 2 2
32 28 25 22 19 15 14 11 8 8 8 9 9 10 12 14 17 10 5 7 1 2 3 1 3 5 5 5 3 3 2 3 2 3 0 1 2 2 1 4 1 3 3 2 3 3 3 3 3 5 4 4 2 3
36 32 29 26 22 19 16 14 10 9 8 9 9 9 11 14 16 9 4 4 1 3 2 4 4 4 6 5 3 2 4 3 3 0 1 1 1 1 2 2 3 4 5 4 5 5 3 2 3 6 6 5 3 3
40 36 33 29 25 22 18 16 12 10 9 8 10 10 10 11 12 7 3 2 3 2 3 2 1 3 4 4 3 4 6 2 2 1 2 3 1 2 1 2 3 6 7 5 5 8 5 4 7 6 5 4 2 3
44 40 36 32 28 25 20 17 14 11 9 7 10 9 9 13 2 1 2 3 3 1 3 2 1 1 2 3 4 5 5 2 1 2 2 2 2 3 2 3 6 6 3 5 4 4 3 5 4 5 6 4 2 3
44 44 39 35 31 27 22 18 15 12 10 7 9 9 12 6 3 3 3 3 3 1 3 3 3 1 1 2 2 1 2 1 1 2 1 1 1 3 2 4 6 5 5 3 3 7 4 2 4 6 5 2 3 6
47 44 41 37 33 27 23 19 15 12 8 5 9 10 8 2 3 2 3 5 5 2 3 1 3 2 3 1 1 0 1 1 1 2 0 2 1 2 4 8 4 2 7 3 7 3 4 9 7 2 4 3 1 4
48 44 42 38 34 27 23 19 16 12 8 5 9 8 5 3 3 3 2 4 5 2 2 2 3 3 1 0 1 2 2 1 1 2 2 2 2 5 9 7 6 8 9 8 6 6 4 5 6 4 5 3 3 4
51 46 42 38 34 28 24 21 17 11 8 5 6 3 1 4 4 3 3 3 3 3 2 3 2 2 2 1 1 2 1 2 2 2 2 2 4 13 9 9 6 9 7 14 6 1 3 4 7 5 6 5 5 5
54 48 42 37 36 30 26 22 17 13 7 4 6 2 6 5 3 1 1 2 1 2 3 3 3 3 1 2 3 2 2 1 1 3 3 2 4 5 4 6 5 9 13 5 5 5 7 6 7 6 4 7 5 7
54 49 44 40 36 32 28 24 20 16 9 7 8 4 4 2 1 1 3 2 3 4 2 4 2 2 2 2 3 0 2 2 4 1 2 3 5 6 2 3 2 6 14 7 8 10 11 10 10 8 6 6 6 6
56 52 46 44 39 34 31 28 23 20 16 6 4 4 2 1 1 6 6 4 2 4 4 3 2 2 1 0 2 2 2 4 1 1 4 5 4 4 5 3 2 5 14 12 8 9 10 9 8 10 9 7 7 8
55 51 47 44 40 38 34 30 26 26 9 4 5 6 6 5 5 5 4 3 2 4 7 3 3 2 1 2 2 4 2 2 1 2 7 3 4 5 3 2 5 5 6 8 10 12 10 10 11 10 10 7 7 8
54 50 48 43 44 40 37 32 32 26 8 4 4 6 8 5 1 2 3 3 2 5 5 3 3 2 1 3 2 3 1 5 6 5 3 3 4 3 3 5 6 8 7 5 13 12 12 12 10 9 7 6 7 7
51 43 46 48 45 44 39 33 28 17 5 3 6 3 1 2 2 2 3 3 4 5 2 2 3 3 4 3 3 7 5 7 3 3 2 3 4 3 3 4 4 9 13 13 15 14 13 13 12 8 7 7 7 7
50 12 38 46 46 42 40 19 8 5 5 6 4 3 3 1 4 5 5 4 12 6 4 3 6 6 3 3 4 5 5 2 1 2 1 2 3 5 3 6 11 13 13 14 15 15 14 11 9 8 7 7 7 7
13 25 43 50 44 29 16 9 6 6 8 4 3 3 2 1 3 2 3 8 5 4 5 5 4 5 6 6 4 2 2 2 2 3 3 3 3 4 5 6 10 13 11 12 14 14 13 13 11 10 9 7 6 6
25 33 40 46 33 10 4 6 5 3 4 2 3 2 3 3 2 3 4 5 3 3 5 3 3 3 3 0 2 3 4 4 3 4 3 7 6 6 6 7 10 11 12 13 14 12 14 15 12 9 8 7 7 6
32 38 42 41 35 5 4 2 3 2 2 2 3 3 3 3 1 3 3 2 2 2 2 3 2 2 3 3 4 4 4 4 5 7 5 3 5 4 6 8 7 10 10 10 10 9 10 9 9 10 10 9 10 8
23 25 36 29 4 7 3 2 2 2 2 3 2 2 3 2 2 2 2 1 1 0 1 3 2 2 5 6 8 8 9 8 4 4 7 6 9 9 8 9 10 10 8 8 8 9 12 13 11 10 9 7 5 4
7 27 8 6 4 3 4 5 2 1 2 2 2 2 3 2 2 2 2 2 2 2 3 2 2 3 5 4 10 13 15 13 13 12 14 12 1 1 3 6 8 6 7 8 9 10 11 8 10 10 10 8 6 5
14 8 5 4 4 4 1 3 2 3 3 2 1 3 2 2 1 2 2 1 2 2 3 4 9 12 9 12 12 10 11 11 7 8 9 6 3 2 3 7 8 7 5 7 8 9 9 8 9 11 8 7 6 4
8 6 4 3 4 3 1 3 2 2 2 2 2 3 2 1 1 3 3 2 2 3 5 10 10 5 6 7 5 10 13 14 11 7 8 7 2 6 3 1 3 4 6 7 8 8 8 9 7 7 10 8 6 5
6 6 4 6 3 3 3 2 2 2 3 2 3 2 1 1 2 2 2 1 2 3 4 8 7 4 1 3 6 10 12 13 9 5 8 7 3 2 2 1 2 3 4 5 7 8 8 7 7 9 9 8 7 6
7 5 4 4 3 4 2 3 3 2 2 3 2 1 1 2 3 2 1 1 2 1 4 5 4 4 4 6 6 9 12 15 13 5 5 7 6 4 3 2 2 3 5 6 6 8 8 8 8 8 8 7 7 9
5 5 3 3 1 3 4 3 3 4 4 3 1 1 2 3 2 0 1 1 1 8 13 13 11 8 7 12 13 12 13 10 8 7 8 6 5 4 4 3 3 3 4 5 9 8 9 9 9 9 8 6 5 5
3 5 4 4 5 4 4 3 3 3 1 2 1 3 3 2 2 1 1 9 13 11 10 10 7 10 13 12 12 13 12 11 11 7 6 4 4 3 4 5 4 6 8 6 5 8 9 9 9 9 9 8 7 7
4 4 2 5 5 5 4 3 2 2 2 1 2 2 2 2 1 3 4 10 6 6 12 14 13 12 8 10 8 9 10 9 9 4 4 3 4 3 12 11 9 8 8 7 5 7 8 9 10 10 9 8 7 6
4 3 4 4 4 3 2 1 1 2 1 1 1 2 2 2 6 8 12 8 11 9 8 10 8 10 10 13 14 14 8 3 7 8 2 3 9 18 17 14 12 10 9 9 8 9 7 9 13 13 10 10 9 8
2 3 4 4 2 2 2 4 3 2 3 2 2 3 2 2 3 1 10 8 7 6 10 17 16 14 14 15 14 12 12 4 8 16 15 16 16 17 18 15 12 10 8 11 8 7 5 4 10 18 13 11 9 8
3 3 3 3 1 3 4 3 1 2 3 2 3 2 3 2 1 2 4 11 14 17 12 11 13 18 18 16 13 12 14 18 16 13 14 17 19 19 19 17 13 12 10 11 12 11 11 10 10 11 12 11 11 10
3 3 3 3 3 4 3 3 4 3 3 2 2 1 2 2 4 3 5 3 11 14 18 13 12 18 20 15 17 18 14 12 16 18 20 20 19 19 19 15 13 14 13 12 13 15 15 16 17 17 16 15 14 13
Wind_Direction
245 247 251 259 268 279 293 310 325 332 351 4 13 16 11 22 18 8 351 18 26 139 277 161 143 119 20 72 118 269 29 342 15 52 89 273 90 270 47 228 186 173 143 217 48 178 260 155 100 206 111 109 99 72
245 246 249 254 260 267 273 282 300 313 334 345 3 6 358 4 11 8 320 348 360 159 231 247 222 189 198 180 146 344 168 185 59 56 11 27 317 18 166 276 343 305 186 201 201 221 174 161 144 124 91 109 50 21
244 244 246 248 252 258 267 271 280 292 315 326 343 357 351 349 358 354 329 339 11 60 325 27 238 196 192 174 184 114 307 186 21 207 75 265 273 116 221 252 174 256 163 199 46 277 190 145 111 133 128 121 103 52
243 243 244 245 247 250 255 264 268 277 294 307 322 343 347 337 346 342 317 322 37 110 103 273 152 138 181 188 197 190 138 112 134 245 246 246 219 126 245 233 202 198 125 185 266 301 343 331 188 149 134 122 101 5
244 243 242 243 244 245 246 252 257 266 280 293 305 318 338 328 333 325 336 174 61 114 220 265 160 177 186 183 184 181 166 126 178 167 191 227 270 62 303 37 250 189 186 168 221 185 159 208 155 145 137 144 71 344
240 240 241 242 242 243 240 241 247 251 265 281 295 313 313 325 350 11 5 215 201 337 85 330 117 110 195 168 166 169 175 175 237 167 232 142 129 121 218 236 249 208 200 170 197 140 111 109 124 144 145 159 193 249
234 239 238 239 239 239 236 234 237 247 257 270 288 295 315 323 205 154 190 155 189 232 86 325 316 275 151 113 95 102 142 205 197 246 208 189 264 142 192 235 248 211 148 135 123 111 26 275 202 145 119 181 278 286
231 231 235 236 236 232 229 227 225 235 249 264 279 294 313 229 200 187 202 208 186 133 89 140 270 348 188 162 90 115 117 180 207 235 306 181 8 86 261 239 252 165 128 115 176 72 155 120 115 134 176 183 207 268
225 225 229 231 232 223 219 217 216 224 223 232 269 281 184 210 200 163 178 195 206 191 182 138 173 228 358 351 94 20 100 96 221 205 230 134 223 233 231 216 198 186 181 182 142 118 113 149 183 195 187 194 200 267
220 220 220 225 221 215 212 209 207 202 201 215 252 200 274 173 144 145 71 36 14 319 41 212 130 190 107 88 5 86 35 217 222 235 92 176 257 264 251 222 198 184 163 135 113 197 172 215 194 183 203 194 207 253
212 214 213 211 213 209 205 203 194 175 160 187 201 194 131 152 129 101 234 130 276 272 199 223 179 153 259 130 179 176 195 200 116 231 171 249 261 251 291 247 197 163 164 177 134 125 147 144 166 164 205 217 238 281
209 206 204 204 207 202 197 196 184 171 168 188 149 144 138 142 82 127 227 326 192 226 155 156 191 123 143 136 113 239 159 58 239 117 76 261 251 260 273 250 241 151 150 140 138 136 138 137 145 162 201 239 261 286
206 201 199 197 198 194 191 190 186 180 177 175 177 149 142 142 235 198 205 254 238 170 170 160 145 138 92 181 79 107 142 222 59 55 237 237 264 276 232 175 126 137 143 141 131 148 155 157 168 201 218 244 264 277
199 196 192 193 192 187 185 184 178 177 176 178 179 206 193 187 233 197 190 184 182 125 145 125 108 137 164 112 119 171 182 81 20 259 235 249 261 286 193 182 126 174 157 155 163 169 177 184 199 211 225 239 250 269
195 192 187 191 186 183 186 183 180 172 162 198 192 215 208 215 154 146 124 118 137 136 126 111 89 121 142 129 183 94 68 248 214 233 234 257 278 263 198 181 172 177 177 170 175 175 192 194 202 216 222 231 244 268
188 185 188 185 184 185 184 177 172 170 193 222 213 211 184 111 167 178 185 165 150 142 98 84 123 149 209 160 145 212 157 226 243 223 252 305 308 266 204 174 190 182 181 176 181 192 195 194 202 218 217 242 252 255
176 185 181 181 184 181 174 165 155 170 203 209 213 210 160 170 184 179 174 165 154 145 176 148 181 200 103 182 227 192 212 227 270 290 297 271 288 299 218 181 179 180 181 186 182 189 192 190 196 209 240 243 228 256
165 177 179 183 174 161 169 157 164 198 213 195 170 197 168 162 140 124 113 146 146 191 158 188 119 188 199 196 218 216 249 250 263 290 287 283 286 298 226 193 181 184 184 183 189 186 183 184 196 220 233 236 241 262
171 169 177 170 158 136 135 174 211 229 185 156 99 73 83 93 27 66 113 135 96 95 117 137 195 209 219 108 19 25 9 358 316 308 283 286 266 240 229 207 187 180 182 182 183 187 198 207 215 218 216 212 235 263
153 157 163 163 159 120 143 166 158 201 194 136 86 93 71 79 78 75 95 92 109 120 128 194 221 32 25 14 357 315 303 318 312 303 296 296 249 227 217 200 195 192 184 189 196 197 197 203 212 219 230 234 239 253
132 154 161 149 98 77 61 97 83 50 109 93 108 96 90 79 80 71 73 30 81 119 34 35 66 25 332 300 303 335 311 317 303 296 299 300 287 237 232 216 203 186 178 185 190 210 204 212 227 213 213 224 233 261
116 147 115 135 90 73 77 11 80 66 71 107 96 88 96 86 78 54 335 63 55 45 26 10 336 324 330 326 317 317 313 309 303 289 292 291 288 255 222 198 178 187 191 196 201 212 217 222 204 198 213 231 230 242
117 105 70 79 86 60 37 329 90 15 97 118 117 98 78 81 54 330 71 86 95 58 50 9 335 328 300 323 341 353 353 337 320 332 343 1 16 329 227 205 201 187 189 206 210 208 202 201 207 208 210 209 219 227
98 57 55 66 69 108 104 56 55 85 97 79 67 84 51 77 343 54 80 67 75 55 17 357 352 339 339 358 3 347 359 354 336 339 2 352 29 22 40 139 189 205 222 220 210 208 206 211 203 200 198 205 212 216
72 11 29 59 45 98 83 76 46 71 87 51 91 64 353 44 78 75 98 56 344 11 1 343 346 351 304 311 337 336 343 358 339 323 359 12 24 20 5 325 255 228 217 210 197 197 198 202 192 183 193 203 210 209
70 8 43 26 17 73 68 79 51 87 86 66 59 207 65 87 71 67 79 310 314 316 342 340 332 333 328 334 323 329 331 339 341 310 357 360 349 329 305 281 299 304 245 229 222 211 206 208 206 205 209 217 242 221
70 22 13 20 32 80 75 57 44 67 60 69 355 66 79 73 83 162 134 89 313 331 331 327 317 293 294 310 320 329 331 332 335 318 323 330 326 335 335 308 300 309 326 271 233 233 229 221 217 216 217 210 207 184
71 25 56 356 55 22 90 56 50 56 60 320 19 41 101 123 156 303 333 353 343 341 353 3 11 339 325 317 321 333 345 339 338 316 300 310 341 350 343 315 288 323 293 286 250 231 232 230 223 216 210 211 202 201
45 350 42 42 46 46 40 55 81 40 350 34 96 82 113 78 39 340 318 342 2 29 22 6 4 0 8 21 20 359 346 347 4 358 343 315 327 297 345 340 326 289 276 274 241 258 250 233 223 214 209 206 200 195
354 7 82 52 65 46 291 117 215 269 317 125 105 82 55 130 158 47 30 36 36 29 18 11 1 358 356 354 340 347 353 16 56 36 299 277 294 316 322 315 318 313 266 260 256 249 257 264 209 181 183 190 194 204
0 45 64 54 98 265 260 298 323 16 28 48 355 112 173 199 165 293 21 43 42 32 13 6 6 11 354 341 336 325 326 305 303 323 318 307 307 313 320 317 301 302 280 240 245 237 234 206 185 183 187 192 199 215
24 63 118 98 262 295 12 53 360 64 346 48 343 5 15 52 286 271 58 57 41 24 2 340 345 340 341 334 326 322 296 291 302 316 326 323 317 313 309 303 295 282 272 249 235 234 229 220 206 202 208 218 225 229
50 40 50 76 27 12 333 62 21 1 20 32 328 206 210 172 230 243 226 320 8 353 351 336 338 341 334 322 317 313 308 305 309 306 302 301 297 296 298 308 297 272 260 247 239 234 234 234 234 235 237 241 246 248